Starlink 36181

operational
NORAD ID: 68047 Int'l Des: 2026-041 Owner: SPXS Country: US Constellation: starlink
NOTLE

Über Starlink 36181

Beschreibung wird geladen...

Live-Position

3D-Globus wird geladen...

Nächste Überflüge

Höhenverlauf

Altitude vs Time

uPlot chart will show altitude changes over time

Zweizeiliger Elementsatz

1 68047C 26041H 26061.44215278 .00462680 00000+0 62156-3 0 614
2 68047 53.1641 99.6778 0008295 277.6953 147.5024 16.05246934 10
Epoch: 2. März 2026 • Age: 27 hours

Aktueller Status

Höhe 270.0 km
Geschwindigkeit 7.75 km/s
Subsatellitenpunkt 53.17°N, 16.27°W
Startdatum 2. März 2026
Alter 1 days
Typ internet

Technische Details

Klassifizierung Payload
Masse 575.00 kg
Trockenmasse 530.00 kg
Gesamtmasse 575.00 kg
Länge 0.30 m
Durchmesser 4.10 m
Spannweite 29.00 m
Form Box + pan
Hersteller SPXS
Bus-Typ Starlink V2MO
Phasenstatus In Orbit
Besitzer/Staat SPXS/US

Große Konstellationen

Loading constellations...